Regional Weather Roundup
Issued by NWS

Home | Current Version | Previous Version | Graphics & Text | Print | Product List | Glossary On
Versions: 1 2 3 4 5 6 7 8 9 10 11 12 13 14 15 16 17 18 19 20 21 22 23 24 25 26 27 28 29 30 31 32 33 34 35 36 37 38 39 40 41 42 43 44 45 46 47 48 49 50
658
ASUS45 KBOI 160810
RWRID

IDAHO REGIONAL WEATHER ROUNDUP
NATIONAL WEATHER SERVICE BOISE ID
200 AM MDT MON OCT 16 2017

NOTE: "FAIR" INDICATES FEW OR NO CLOUDS BELOW 12000 FEET
WITH NO SIGNIFICANT WEATHER AND/OR OBSTRUCTIONS TO VISIBILITY

IDZ012-014-160900-
SOUTHWEST IDAHO


CITY           SKY/WX    TMP DP  RH WIND       PRES   REMARKS
BOISE          CLEAR     39  28  64 CALM      30.35S
CALDWELL       CLEAR     32  26  78 CALM      30.37R
MOUNTAIN HOME  CLEAR     33  19  56 E3        30.35S
$$

IDZ016-017-160900-
SOUTHCENTRAL IDAHO


CITY           SKY/WX    TMP DP  RH WIND       PRES   REMARKS
BURLEY         CLEAR     31  25  78 CALM      30.35S
JEROME         CLEAR     38  25  59 NE17      30.36S WCI  28
TWIN FALLS     CLEAR     35  21  56 SE7       30.35S WCI  29
$$

IDZ019>023-160900-
SOUTHEAST IDAHO


CITY           SKY/WX    TMP DP  RH WIND       PRES   REMARKS
IDAHO FALLS    CLOUDY    29  25  85 N5        30.40S WCI  24
POCATELLO      CLOUDY    28  25  88 NE5       30.39F WCI  23
REXBURG        CLOUDY    29  25  85 NE3       30.40S
$$

IDZ006-010-011-018-031-032-160900-
CENTRAL IDAHO MOUNTAINS


CITY           SKY/WX    TMP DP  RH WIND       PRES   REMARKS
MCCALL         CLEAR     28  23  81 CALM      30.36S
HAILEY         CLEAR     32  23  69 NW9       30.42S WCI  24
STANLEY          N/A     25  21  85 CALM      30.43R
SALMON         CLEAR     31  26  82 CALM      30.36
CHALLIS        CLEAR     31  25  78 CALM      30.37S
$$

IDZ002-004-006-007-026-160900-
NORTHERN IDAHO


CITY           SKY/WX    TMP DP  RH WIND       PRES   REMARKS
LEWISTON       CLEAR     44  33  65 SE3       30.27S
LOWELL           N/A     39  36  89 N3        30.36S
COEUR D`ALENE  CLEAR     35  32  88 E3        30.27S
MULLAN PASS    CLEAR     38  19  46 SW8       30.27R WCI  32
$$




USA.gov is the U.S. government's official web portal to all federal, state and local government web resources and services.